Location: Newark
(7.0858°N, 171.3717°E)
Time: 13:35:50
(UTC+00:00)

Vanguard 1 Rocket - Pass Details

Date: 01 December 2020
Orbit: 655 x 4222 km, 34.3° (Epoch: 23 January)

Event Time Altitude Azimuth Distance (km) Brightness Sun altitude
Rises 11:31:59 0° 245° (WSW) 6,694 12.1 -70.6°
Reaches altitude 10° 11:35:50 10° 248° (WSW) 6,047 11.7 -71.2°
Enters shadow 11:43:26 32° 257° (WSW) 5,013 11.0 -72.3°
Exits shadow 12:26:16 - 50° (NE) 7,386 11.9 -75.2°
Sets 12:27:57 0° 51° (NE) 7,636 12.0 -75.1°
